AAL1919 KCLT-KBUF

Flight info

Callsign AAL1919
Flight time 1h 11m
Altitude 33000
Route KRITR6 FILDS ILLSA Q69 RICCS EWC DKK
Aircraft B738/M-SDE2E3FGHIRWXY/LB1

Departure

Time 2026-05-06 23:47
Airport Charlotte Douglas International Airport (KCLT)

Arrival

Time 2026-05-07 00:59
Airport Buffalo Niagara International Airport (KBUF)
Time Latitude Longitude Altitude Speed Heading
2026-05-06 23:12 35.21950 -80.94331 731 ft 0 kts 86°
2026-05-06 23:36 35.21950 -80.94335 731 ft 3 kts 86°
2026-05-06 23:36 35.21949 -80.94355 729 ft 3 kts 84°
2026-05-06 23:36 35.21943 -80.94373 730 ft 2 kts 48°
2026-05-06 23:36 35.21934 -80.94386 729 ft 3 kts 99°
2026-05-06 23:37 35.21938 -80.94393 729 ft 3 kts 169°
2026-05-06 23:37 35.21942 -80.94394 730 ft 3 kts 180°
2026-05-06 23:37 35.21922 -80.94395 730 ft 3 kts 180°
2026-05-06 23:37 35.21906 -80.94394 731 ft 0 kts 177°
2026-05-06 23:40 35.21896 -80.94393 730 ft 3 kts 177°
2026-05-06 23:41 35.21851 -80.94390 731 ft 9 kts 177°
2026-05-06 23:41 35.21775 -80.94385 730 ft 12 kts 177°
2026-05-06 23:41 35.21694 -80.94382 731 ft 11 kts 186°
2026-05-06 23:41 35.21641 -80.94446 731 ft 11 kts 248°
2026-05-06 23:42 35.21627 -80.94537 731 ft 11 kts 264°
2026-05-06 23:42 35.21622 -80.94630 731 ft 12 kts 266°
2026-05-06 23:42 35.21616 -80.94747 731 ft 15 kts 266°
2026-05-06 23:42 35.21609 -80.94871 732 ft 14 kts 266°
2026-05-06 23:43 35.21602 -80.94985 731 ft 11 kts 274°
2026-05-06 23:43 35.21664 -80.95025 733 ft 12 kts 354°
2026-05-06 23:43 35.21765 -80.95033 733 ft 18 kts 356°
2026-05-06 23:43 35.21906 -80.95046 733 ft 22 kts 356°
2026-05-06 23:44 35.22064 -80.95061 733 ft 22 kts 355°
2026-05-06 23:44 35.22217 -80.95074 733 ft 22 kts 356°
2026-05-06 23:44 35.22364 -80.95088 733 ft 21 kts 356°
2026-05-06 23:44 35.22509 -80.95096 733 ft 21 kts 357°
2026-05-06 23:45 35.22649 -80.95106 732 ft 20 kts 355°
2026-05-06 23:45 35.22713 -80.95120 733 ft 8 kts 332°
2026-05-06 23:45 35.22732 -80.95179 734 ft 8 kts 269°
2026-05-06 23:45 35.22730 -80.95244 737 ft 8 kts 266°
2026-05-06 23:46 35.22721 -80.95304 740 ft 6 kts 246°
2026-05-06 23:46 35.22692 -80.95315 740 ft 5 kts 178°
2026-05-06 23:46 35.22601 -80.95306 740 ft 32 kts 175°
2026-05-06 23:46 35.22127 -80.95268 741 ft 103 kts 176°
2026-05-06 23:47 35.21206 -80.95190 736 ft 161 kts 177°
2026-05-06 23:47 35.20004 -80.95069 1192 ft 179 kts 176°
2026-05-06 23:47 35.18766 -80.94894 2095 ft 174 kts 176°
2026-05-06 23:47 35.17592 -80.94633 2980 ft 175 kts 175°
2026-05-06 23:48 35.16347 -80.94659 3407 ft 187 kts 205°
2026-05-06 23:48 35.15319 -80.95688 3650 ft 203 kts 238°
2026-05-06 23:48 35.14895 -80.97349 4214 ft 214 kts 263°
2026-05-06 23:48 35.15165 -80.99252 4446 ft 249 kts 289°
2026-05-06 23:49 35.16236 -81.01009 5155 ft 267 kts 314°
2026-05-06 23:49 35.17909 -81.02091 6074 ft 280 kts 341°
2026-05-06 23:49 35.19879 -81.02143 6971 ft 291 kts
2026-05-06 23:49 35.21871 -81.01741 7843 ft 292 kts
2026-05-06 23:50 35.23890 -81.01295 8570 ft 297 kts
2026-05-06 23:50 35.27958 -81.00419 10178 ft 301 kts
2026-05-06 23:50 35.30076 -80.99988 10552 ft 319 kts
2026-05-06 23:51 35.32361 -80.99540 10723 ft 343 kts
2026-05-06 23:51 35.34733 -80.99074 11424 ft 344 kts
2026-05-06 23:51 35.37103 -80.98606 12183 ft 346 kts
2026-05-06 23:51 35.39495 -80.98138 12870 ft 350 kts
2026-05-06 23:52 35.41921 -80.97667 13542 ft 355 kts
2026-05-06 23:52 35.44367 -80.97193 14196 ft 357 kts
2026-05-06 23:52 35.46830 -80.96716 14848 ft 360 kts
2026-05-06 23:52 35.49317 -80.96236 15431 ft 365 kts
2026-05-06 23:53 35.51847 -80.95749 15947 ft 371 kts
2026-05-06 23:53 35.54444 -80.95251 16258 ft 384 kts
2026-05-06 23:53 35.57071 -80.94744 16695 ft 390 kts
2026-05-06 23:53 35.59764 -80.94219 17297 ft 393 kts
2026-05-06 23:54 35.62466 -80.93690 17947 ft 394 kts
2026-05-06 23:54 35.65176 -80.93162 18557 ft 395 kts
2026-05-06 23:54 35.67898 -80.92634 19066 ft 398 kts
2026-05-06 23:54 35.70645 -80.92101 19551 ft 401 kts
2026-05-06 23:55 35.73412 -80.91558 20058 ft 404 kts
2026-05-06 23:55 35.76215 -80.91007 20424 ft 411 kts
2026-05-06 23:55 35.79066 -80.90445 20812 ft 417 kts
2026-05-06 23:55 35.81938 -80.89876 21294 ft 419 kts
2026-05-06 23:56 35.84824 -80.89301 21817 ft 420 kts 360°
2026-05-06 23:56 35.87720 -80.88723 22345 ft 421 kts 360°
2026-05-06 23:56 35.90621 -80.88145 22872 ft 422 kts 360°
2026-05-06 23:56 35.93527 -80.87566 23373 ft 424 kts 359°
2026-05-06 23:57 35.96444 -80.86986 23782 ft 426 kts 359°
2026-05-06 23:57 35.99387 -80.86402 24100 ft 430 kts 359°
2026-05-06 23:57 36.02350 -80.85814 24441 ft 433 kts 359°
2026-05-06 23:57 36.05294 -80.85228 24811 ft 435 kts 359°
2026-05-06 23:58 36.08281 -80.84631 25232 ft 436 kts 360°
2026-05-06 23:58 36.11288 -80.84030 25608 ft 438 kts 360°
2026-05-06 23:58 36.14309 -80.83427 25932 ft 441 kts 360°
2026-05-06 23:58 36.17359 -80.82819 26243 ft 445 kts 360°
2026-05-06 23:59 36.20422 -80.82207 26565 ft 447 kts 360°
2026-05-06 23:59 36.23503 -80.81589 26895 ft 450 kts 360°
2026-05-06 23:59 36.26603 -80.80968 27222 ft 452 kts 360°
2026-05-06 23:59 36.29723 -80.80342 27524 ft 455 kts 360°
2026-05-07 00:00 36.32853 -80.79713 27827 ft 457 kts 360°
2026-05-07 00:00 36.36008 -80.79080 28091 ft 461 kts 360°
2026-05-07 00:00 36.39184 -80.78441 28375 ft 464 kts
2026-05-07 00:00 36.41302 -80.78015 28518 ft 467 kts
2026-05-07 00:01 36.45604 -80.77148 28929 ft 469 kts
2026-05-07 00:01 36.48839 -80.76495 29149 ft 473 kts
2026-05-07 00:01 36.52094 -80.75838 29411 ft 475 kts
2026-05-07 00:01 36.55327 -80.75185 29706 ft 477 kts
2026-05-07 00:02 36.58609 -80.74443 29971 ft 484 kts
2026-05-07 00:02 36.61872 -80.73180 30135 ft 497 kts 12°
2026-05-07 00:02 36.65112 -80.71631 30314 ft 502 kts 13°
2026-05-07 00:02 36.68365 -80.69996 30532 ft 505 kts 13°
2026-05-07 00:03 36.71621 -80.68338 30776 ft 506 kts 13°
2026-05-07 00:03 36.74886 -80.66688 31026 ft 507 kts 12°
2026-05-07 00:03 36.78167 -80.65050 31251 ft 508 kts 12°
2026-05-07 00:03 36.81454 -80.63427 31477 ft 509 kts 11°
2026-05-07 00:04 36.83685 -80.62334 31608 ft 510 kts 11°
2026-05-07 00:04 36.87000 -80.60715 31757 ft 513 kts 11°
2026-05-07 00:04 36.90335 -80.59088 31974 ft 514 kts 11°
2026-05-07 00:04 36.93621 -80.57481 32253 ft 513 kts 10°
2026-05-07 00:05 36.96939 -80.55854 32605 ft 511 kts 10°
2026-05-07 00:05 37.00238 -80.54232 32936 ft 509 kts
2026-05-07 00:05 37.06874 -80.50977 32944 ft 512 kts
2026-05-07 00:06 37.13482 -80.47721 32994 ft 509 kts
2026-05-07 00:06 37.20076 -80.44468 32981 ft 508 kts
2026-05-07 00:07 37.26645 -80.41224 32985 ft 507 kts
2026-05-07 00:07 37.33206 -80.37978 32977 ft 506 kts
2026-05-07 00:08 37.39759 -80.34729 32948 ft 506 kts
2026-05-07 00:08 37.46291 -80.31486 32937 ft 510 kts
2026-05-07 00:09 37.52972 -80.28163 32929 ft 514 kts
2026-05-07 00:09 37.59591 -80.24856 32922 ft 516 kts
2026-05-07 00:10 37.66305 -80.21928 32931 ft 498 kts 358°
2026-05-07 00:10 37.69670 -80.21282 32957 ft 485 kts 352°
2026-05-07 00:10 37.73018 -80.20815 32924 ft 483 kts 352°
2026-05-07 00:11 37.79694 -80.19931 32935 ft 483 kts 352°
2026-05-07 00:11 37.86380 -80.18982 32956 ft 484 kts 352°
2026-05-07 00:12 37.93075 -80.17981 32953 ft 485 kts 353°
2026-05-07 00:12 37.99778 -80.16963 32940 ft 485 kts 353°
2026-05-07 00:13 38.06492 -80.15946 32934 ft 486 kts 353°
2026-05-07 00:13 38.13216 -80.14928 32938 ft 487 kts 353°
2026-05-07 00:14 38.19956 -80.13905 32942 ft 488 kts 353°
2026-05-07 00:14 38.26705 -80.12879 32944 ft 489 kts 353°
2026-05-07 00:15 38.33427 -80.11855 32925 ft 490 kts 353°
2026-05-07 00:15 38.40171 -80.11040 32956 ft 482 kts 349°
2026-05-07 00:16 38.46850 -80.10727 32934 ft 480 kts 347°
2026-05-07 00:16 38.53524 -80.10462 32956 ft 480 kts 347°
2026-05-07 00:17 38.60202 -80.10132 32949 ft 480 kts 347°
2026-05-07 00:17 38.66874 -80.09769 32966 ft 479 kts 347°
2026-05-07 00:18 38.73536 -80.09406 32977 ft 479 kts 347°
2026-05-07 00:18 38.80195 -80.09046 32978 ft 479 kts 347°
2026-05-07 00:19 38.86866 -80.08686 32986 ft 480 kts 347°
2026-05-07 00:19 38.93532 -80.08406 32988 ft 474 kts 344°
2026-05-07 00:20 39.00035 -80.08751 32993 ft 469 kts 341°
2026-05-07 00:20 39.06554 -80.09278 32987 ft 470 kts 341°
2026-05-07 00:21 39.13092 -80.09770 32970 ft 471 kts 341°
2026-05-07 00:21 39.19639 -80.10215 32965 ft 471 kts 341°
2026-05-07 00:22 39.26175 -80.10641 32983 ft 470 kts 341°
2026-05-07 00:22 39.32706 -80.11069 32987 ft 469 kts 340°
2026-05-07 00:23 39.39220 -80.11497 32984 ft 467 kts 340°
2026-05-07 00:23 39.45698 -80.11926 32985 ft 466 kts 340°
2026-05-07 00:24 39.52158 -80.12356 32999 ft 464 kts 339°
2026-05-07 00:24 39.58550 -80.12781 33007 ft 462 kts 339°
2026-05-07 00:25 39.64963 -80.13209 33008 ft 460 kts 339°
2026-05-07 00:25 39.71349 -80.13637 33003 ft 459 kts 339°
2026-05-07 00:26 39.77720 -80.14065 32997 ft 458 kts 339°
2026-05-07 00:26 39.84068 -80.14491 32992 ft 456 kts 339°
2026-05-07 00:27 39.90400 -80.14916 33012 ft 455 kts 339°
2026-05-07 00:27 39.96721 -80.15342 33007 ft 454 kts 338°
2026-05-07 00:28 40.03043 -80.15771 33024 ft 455 kts 339°
2026-05-07 00:28 40.09370 -80.16202 33027 ft 456 kts 339°
2026-05-07 00:29 40.15711 -80.16631 33032 ft 456 kts 339°
2026-05-07 00:30 40.28415 -80.17493 33020 ft 457 kts 339°
2026-05-07 00:30 40.34736 -80.17923 32997 ft 458 kts 339°
2026-05-07 00:31 40.41105 -80.18357 32997 ft 459 kts 339°
2026-05-07 00:31 40.47484 -80.18794 32995 ft 459 kts 339°
2026-05-07 00:32 40.53870 -80.19230 32989 ft 459 kts 339°
2026-05-07 00:32 40.60247 -80.19666 32996 ft 458 kts 339°
2026-05-07 00:33 40.66620 -80.20104 33002 ft 459 kts 339°
2026-05-07 00:33 40.72992 -80.20544 33018 ft 459 kts 339°
2026-05-07 00:34 40.79406 -80.20922 33003 ft 469 kts 343°
2026-05-07 00:34 40.82738 -80.20514 33011 ft 491 kts 353°
2026-05-07 00:34 40.86116 -80.19429 32997 ft 512 kts
2026-05-07 00:35 40.92791 -80.15859 33020 ft 519 kts
2026-05-07 00:35 40.99382 -80.12041 33015 ft 520 kts
2026-05-07 00:36 41.06026 -80.08266 33028 ft 519 kts
2026-05-07 00:36 41.12681 -80.04569 33025 ft 518 kts
2026-05-07 00:37 41.19384 -80.00881 32245 ft 529 kts
2026-05-07 00:37 41.22778 -79.99011 31685 ft 525 kts
2026-05-07 00:37 41.26119 -79.97141 31477 ft 518 kts
2026-05-07 00:38 41.29449 -79.95282 31237 ft 520 kts
2026-05-07 00:38 41.32799 -79.93420 30995 ft 523 kts
2026-05-07 00:38 41.36164 -79.91551 30776 ft 525 kts
2026-05-07 00:38 41.39544 -79.89669 30560 ft 527 kts
2026-05-07 00:39 41.42934 -79.87779 30320 ft 529 kts
2026-05-07 00:39 41.46334 -79.85879 30031 ft 532 kts
2026-05-07 00:39 41.49766 -79.83962 29395 ft 536 kts
2026-05-07 00:39 41.53197 -79.82034 28681 ft 532 kts
2026-05-07 00:40 41.56590 -79.80118 27998 ft 528 kts 10°
2026-05-07 00:40 41.59969 -79.78211 27343 ft 526 kts 10°
2026-05-07 00:40 41.63342 -79.76312 26704 ft 526 kts 10°
2026-05-07 00:40 41.66720 -79.74412 26058 ft 525 kts 11°
2026-05-07 00:41 41.70042 -79.72541 25447 ft 524 kts 11°
2026-05-07 00:41 41.73393 -79.70651 24837 ft 522 kts 12°
2026-05-07 00:41 41.76727 -79.68765 24231 ft 517 kts 12°
2026-05-07 00:41 41.80016 -79.66898 23641 ft 509 kts 12°
2026-05-07 00:42 41.83252 -79.65058 22945 ft 502 kts 13°
2026-05-07 00:42 41.86442 -79.63246 22248 ft 495 kts 13°
2026-05-07 00:42 41.89601 -79.61453 21571 ft 489 kts 13°
2026-05-07 00:42 41.92716 -79.59686 20919 ft 483 kts 14°
2026-05-07 00:43 41.95795 -79.57938 20273 ft 478 kts 14°
2026-05-07 00:43 41.98845 -79.56204 19648 ft 473 kts 15°
2026-05-07 00:43 42.01864 -79.54485 19105 ft 467 kts 15°
2026-05-07 00:43 42.04838 -79.52789 18592 ft 461 kts 15°
2026-05-07 00:44 42.07778 -79.51111 18048 ft 457 kts 15°
2026-05-07 00:44 42.10694 -79.49447 17464 ft 455 kts 16°
2026-05-07 00:44 42.13610 -79.47782 16894 ft 453 kts 16°
2026-05-07 00:44 42.16459 -79.46152 16328 ft 448 kts 17°
2026-05-07 00:45 42.19313 -79.44514 15781 ft 443 kts 17°
2026-05-07 00:45 42.22135 -79.42894 15233 ft 439 kts 17°
2026-05-07 00:45 42.24934 -79.41287 14698 ft 435 kts 18°
2026-05-07 00:45 42.27710 -79.39691 14084 ft 432 kts 18°
2026-05-07 00:46 42.30462 -79.38109 13427 ft 428 kts 18°
2026-05-07 00:46 42.33178 -79.36497 12796 ft 426 kts 23°
2026-05-07 00:46 42.35580 -79.34155 12197 ft 428 kts 42°
2026-05-07 00:46 42.37313 -79.30969 11630 ft 416 kts 63°
2026-05-07 00:47 42.38185 -79.27392 11585 ft 388 kts 77°
2026-05-07 00:47 42.38727 -79.23870 10956 ft 381 kts 79°
2026-05-07 00:47 42.39195 -79.20375 10451 ft 371 kts 79°
2026-05-07 00:47 42.39619 -79.17020 10267 ft 352 kts 79°
2026-05-07 00:48 42.40246 -79.13925 10097 ft 332 kts 60°
2026-05-07 00:48 42.41542 -79.11493 10029 ft 307 kts 43°
2026-05-07 00:48 42.42974 -79.09484 9874 ft 299 kts 40°
2026-05-07 00:48 42.44442 -79.07497 9558 ft 296 kts 40°
2026-05-07 00:49 42.45879 -79.05566 9265 ft 285 kts 40°
2026-05-07 00:49 42.47269 -79.03706 8963 ft 277 kts 40°
2026-05-07 00:49 42.48627 -79.01900 8641 ft 271 kts 40°
2026-05-07 00:49 42.49965 -79.00132 8309 ft 266 kts 40°
2026-05-07 00:50 42.51282 -78.98406 7989 ft 261 kts 40°
2026-05-07 00:50 42.52147 -78.97281 7641 ft 260 kts 40°
2026-05-07 00:50 42.53456 -78.95600 7138 ft 258 kts 40°
2026-05-07 00:50 42.54761 -78.93944 6640 ft 255 kts 40°
2026-05-07 00:51 42.56058 -78.92322 6137 ft 253 kts 40°
2026-05-07 00:51 42.57349 -78.90717 5602 ft 251 kts 39°
2026-05-07 00:51 42.58765 -78.89387 5088 ft 247 kts 16°
2026-05-07 00:51 42.60390 -78.88799 4804 ft 237 kts
2026-05-07 00:52 42.62005 -78.88756 4482 ft 228 kts 351°
2026-05-07 00:52 42.63569 -78.88985 4152 ft 224 kts 350°
2026-05-07 00:52 42.65103 -78.89235 3861 ft 220 kts 350°
2026-05-07 00:52 42.66601 -78.89487 3597 ft 214 kts 349°
2026-05-07 00:53 42.68063 -78.89737 3328 ft 209 kts 350°
2026-05-07 00:53 42.69495 -78.89984 3093 ft 205 kts 349°
2026-05-07 00:53 42.70885 -78.90171 3027 ft 206 kts
2026-05-07 00:53 42.72291 -78.89784 3033 ft 207 kts 10°
2026-05-07 00:54 42.73705 -78.89327 2861 ft 212 kts
2026-05-07 00:54 42.75149 -78.88876 2598 ft 212 kts 10°
2026-05-07 00:54 42.76573 -78.88442 2377 ft 208 kts 10°
2026-05-07 00:54 42.77980 -78.88018 2317 ft 207 kts
2026-05-07 00:55 42.79381 -78.87597 2317 ft 205 kts
2026-05-07 00:55 42.80776 -78.87181 2302 ft 205 kts
2026-05-07 00:55 42.82172 -78.86764 2305 ft 205 kts
2026-05-07 00:55 42.83543 -78.86226 2286 ft 206 kts 27°
2026-05-07 00:56 42.84668 -78.85068 2315 ft 198 kts 34°
2026-05-07 00:56 42.85714 -78.83898 2304 ft 190 kts 38°
2026-05-07 00:56 42.86649 -78.82700 2282 ft 180 kts 40°
2026-05-07 00:56 42.87551 -78.81517 2119 ft 179 kts 41°
2026-05-07 00:57 42.88391 -78.80341 2023 ft 174 kts 42°
2026-05-07 00:57 42.89235 -78.79255 1919 ft 156 kts 39°
2026-05-07 00:57 42.90019 -78.78251 1675 ft 152 kts 41°
2026-05-07 00:57 42.90774 -78.77252 1400 ft 150 kts 40°
2026-05-07 00:58 42.91523 -78.76279 1176 ft 149 kts 43°
2026-05-07 00:58 42.92263 -78.75300 975 ft 147 kts 41°
2026-05-07 00:58 42.93000 -78.74332 764 ft 146 kts 43°
2026-05-07 00:58 42.93716 -78.73395 684 ft 133 kts 44°
2026-05-07 00:59 42.94421 -78.72465 675 ft 40 kts 44°
2026-05-07 00:59 42.94494 -78.72314 682 ft 15 kts 108°
2026-05-07 00:59 42.94412 -78.72273 679 ft 15 kts 216°
2026-05-07 01:00 42.94337 -78.72366 680 ft 14 kts 224°
2026-05-07 01:00 42.94268 -78.72458 683 ft 14 kts 224°
2026-05-07 01:00 42.94202 -78.72545 682 ft 13 kts 224°
2026-05-07 01:00 42.94137 -78.72629 681 ft 13 kts 224°
2026-05-07 01:01 42.94074 -78.72711 689 ft 12 kts 223°
2026-05-07 01:01 42.94006 -78.72799 683 ft 15 kts 224°
2026-05-07 01:01 42.93928 -78.72902 684 ft 15 kts 223°
2026-05-07 01:01 42.93845 -78.72972 690 ft 14 kts 181°
2026-05-07 01:02 42.93762 -78.73010 694 ft 13 kts 222°
2026-05-07 01:02 42.93689 -78.73105 691 ft 15 kts 224°
2026-05-07 01:02 42.93614 -78.73203 690 ft 15 kts 224°
2026-05-07 01:02 42.93541 -78.73298 691 ft 14 kts 224°
2026-05-07 01:03 42.93481 -78.73361 692 ft 9 kts 189°
2026-05-07 01:03 42.93437 -78.73350 686 ft 5 kts 165°
2026-05-07 01:03 42.93418 -78.73343 688 ft 1 kts 164°